This demonstration page uses our WeatherBlox Daily Observations layout. Learn more.

38.88101, -77.10428

Hourly Observations for April 25, 2020

Temp ( °F °C ) Dew Point ( °F °C ) Humidity (%) Winds ( mph kmh ) Pressure ( in mb ) Visibility ( mi km ) Precip ( " mm )
12:09 am 00:09 Cloudy 53 11.7 47 8.3 80 80 ENE 7 11 29.92 1013 10 16.0934 0 0
12:52 am 00:52 Cloudy 53 11.7 48 8.9 83 83 ENE 7 11 29.92 1013 10 16.0934 0 0
1:08 am 01:08 Mostly Cloudy 53 11.7 47 8.3 80 80 ENE 6 9 29.92 1013 10 16.0934 0 0
1:52 am 01:52 Mostly Clear 52 11.1 47 8.3 83 83 Calm 29.94 1014 10 16.0934 0 0
2:52 am 02:52 Partly Cloudy 51 10.6 48 8.9 89 89 Calm 29.95 1014 10 16.0934 0 0
3:13 am 03:13 Mostly Cloudy 50 10 48 8.9 93 93 Calm 29.96 1015 9 14.48406 0 0
3:52 am 03:52 Cloudy 51 10.6 48 8.9 89 89 Calm 29.96 1015 10 16.0934 0 0
4:02 am 04:02 Mostly Cloudy 51 10.6 48 8.9 89 89 Calm 29.97 1015 10 16.0934 0 0
4:52 am 04:52 Mostly Clear 49 9.4 47 8.3 93 93 Calm 29.98 1015 9 14.48406 0 0
5:52 am 05:52 Mostly Clear 48 8.9 46 7.8 93 93 N 3 6 30 1016 10 16.0934 0 0
6:52 am 06:52 Partly Cloudy with Mist and Fog 48 8.9 47 8.3 96 96 Calm 30.01 1016 5 8.0467 0 0
7:52 am 07:52 Mostly Cloudy with Mist and Fog 51 10.6 49 9.4 92 92 Calm 30.02 1017 6 9.65604 0 0
8:04 am 08:04 Mostly Cloudy 52 11.1 48 8.9 86 86 ESE 8 13 30.02 1017 9 14.48406 0 0
8:52 am 08:52 Cloudy 53 11.7 48 8.9 83 83 SE 5 7 30.04 1017 10 16.0934 0 0
9:52 am 09:52 Cloudy 54 12.2 48 8.9 80 80 NNE 3 6 30.05 1018 10 16.0934 0 0
10:38 am 10:38 Cloudy 55 12.8 49 9.4 80 80 Calm 30.07 1018 10 16.0934 0 0
10:52 am 10:52 Cloudy 55 12.8 49 9.4 80 80 E 3 6 30.08 1019 10 16.0934 0 0
11:52 am 11:52 Mostly Cloudy 60 15.6 50 10 70 70 VRB 5 7 30.07 1018 10 16.0934 0 0
12:52 pm 12:52 Mostly Cloudy 60 15.6 49 9.4 67 67 Calm 30.05 1018 10 16.0934 0 0
12:54 pm 12:54 Mostly Cloudy 60 15.6 48 8.9 65 65 Calm 30.05 1018 10 16.0934 0 0
1:52 pm 13:52 Cloudy 63 17.2 49 9.4 60 60 E 7 11 30.02 1017 10 16.0934 0 0
2:52 pm 14:52 Cloudy 64 17.8 48 8.9 56 56 ESE 7 11 30.03 1017 10 16.0934 0 0
3:52 pm 15:52 Cloudy 62 16.7 48 8.9 60 60 SE 12 19 30.01 1016 10 16.0934 0 0
4:52 pm 16:52 Cloudy 62 16.7 48 8.9 60 60 ESE 12 19 29.99 1016 10 16.0934 0 0
5:52 pm 17:52 Cloudy 61 16.1 48 8.9 63 63 SSE 9 15 30 1016 10 16.0934 0 0
6:52 pm 18:52 Cloudy 61 16.1 49 9.4 65 65 SE 7 11 29.98 1015 10 16.0934 0 0
7:52 pm 19:52 Cloudy with Light Rain 60 15.6 50 10 70 70 SE 9 15 29.98 1015 10 16.0934 0.001 0.001
8:22 pm 20:22 Cloudy with Light Rain 57 13.9 51 10.6 81 81 S 14 22 30 1016 10 16.0934 0.001 0.001
8:52 pm 20:52 Cloudy with Light Rain 55 12.8 52 11.1 90 90 S 14 22 30.01 1016 9 14.48406 0.01 0.254
9:09 pm 21:09 Cloudy with Light Rain 55 12.8 52 11.1 90 90 SE 12 19 30.02 1017 9 14.48406 0.01 0.254
9:23 pm 21:23 Cloudy with Light Rain 54 12.2 49 9.4 83 83 SE 10 17 30.02 1017 10 16.0934 0.01 0.254
9:52 pm 21:52 Cloudy with Light Rain 53 11.7 49 9.4 86 86 SE 7 11 30.02 1017 10 16.0934 0.02 0.508
10:52 pm 22:52 Cloudy with Light Rain 52 11.1 48 8.9 86 86 E 3 6 30.01 1016 10 16.0934 0.02 0.508
11:50 pm 23:50 Cloudy with Light Rain 52 11 48 9 88 88 E 6 9 30 1016 10 16.0934 0.001 0.001
11:52 pm 23:52 Cloudy with Light Rain 52 11.1 48 8.9 86 86 E 7 11 30 1016 10 16.0934 0.001 0.001

Powered by AerisWeather